Location: Nelson
(41.2830°S, 173.2830°E)
Time: 18:30:58
(UTC+12:00)

SJ 16-02 - Pass Details

Date: 14 May 2021
Orbit: 606 x 616 km, 75.0° (Epoch: 18 June)

Event Time Altitude Azimuth Distance (km) Brightness Sun altitude
Rises 19:01:08 0° 192° (SSW) 2,910 4.9 -19.2°
Reaches altitude 10° 19:03:30 10° 184° (S) 1,999 3.9 -19.6°
Enters shadow 19:06:30 33° 152° (SSE) 1,043 2.2 -20.2°
